Flag for Germany Weather past 2 weeks in Erftstadt, North Rhine-Westphalia, Germany

Now
61 °F

Broken clouds.


Feels Like: 61 °F
Forecast: 45 / 70 °F
Wind: 7 mph from West

Location: Noervenich


UV Index: 3 (Moderate)

Visibility: N/A


Pressure: 30.09 "Hg

Humidity: 63%

Dew point: 48 °F

Location of ErftstadtLocation

Historic Weather in Erftstadt

°F

Erftstadt temperature yesterday

Maximum temperature yesterday: 63 °F (at 4:20 PM)
Minimum temperature yesterday: 46 °F (at 6:20 AM)
Average temperature yesterday: 55 °F

Past Weeks' High & Low Weather Summary

 TemperatureHumidityPressure
High70 °F (Apr 20, 3:20 PM)100% (Apr 22, 12:20 AM)30.45 "Hg (Apr 22, 12:20 AM)
Low32 °F (Apr 16, 5:20 AM)26% (Apr 17, 4:20 PM)29.62 "Hg (Apr 21, 1:20 PM)
Average51 °F68%30.05 "Hg
* Reported Apr 8 8:20 PM — Apr 23 8:20 PM, Erftstadt, Weather by CustomWeather, © 2014

Note: Actual official high and low records may vary slightly from our data, if they occured in-between our weather recording intervals... More about our weather records

Advertising

Historic Weather Conditions — Data for Previous 24 hours

 ConditionsComfort  
Time TempWeatherWind HumidityBarometerVisibility
8:20 PM
Apr 23
61 °FScattered showers. Broken clouds.2 mph68%30.07 "HgN/A
7:20 PM64 °FScattered showers. Scattered clouds.6 mph52%30.07 "HgN/A
6:20 PM68 °FThundershowers. Scattered clouds.6 mph46%30.07 "HgN/A
5:20 PM70 °FScattered clouds.5 mph43%30.07 "HgN/A
4:20 PM68 °FScattered clouds.3 mph46%30.07 "HgN/A
3:20 PM68 °FScattered clouds.5 mph46%30.07 "HgN/A
2:20 PM66 °FScattered clouds.7 mph49%30.09 "HgN/A
1:20 PM66 °FScattered clouds.2 mph49%30.09 "HgN/A
12:20 PM64 °FPassing clouds.3 mph56%30.09 "HgN/A
11:20 AM63 °FScattered clouds.3 mph64%30.09 "HgN/A
10:20 AM61 °FPartly sunny.2 mph63%30.09 "HgN/A
9:20 AM55 °FBroken clouds.3 mph82%30.09 "HgN/A
8:20 AM50 °FBroken clouds.2 mph94%30.09 "HgN/A
7:20 AM48 °FScattered showers. Partly cloudy.2 mph94%30.07 "HgN/A
6:20 AM48 °FScattered showers. Partly cloudy.1 mph94%30.07 "HgN/A
5:20 AM48 °FPassing clouds.2 mph94%30.07 "HgN/A
4:20 AM48 °FPartly cloudy.3 mph94%30.04 "HgN/A
3:20 AM48 °FPassing clouds.5 mph94%30.04 "HgN/A
2:20 AM48 °FPassing clouds.3 mph94%30.04 "HgN/A
1:20 AM50 °FPassing clouds.2 mph94%30.01 "Hg5 mi
12:20 AM50 °FPassing clouds.2 mph94%30.01 "Hg5 mi
11:20 PM
Apr 22
52 °FPartly cloudy.3 mph94%30.01 "HgN/A
10:20 PM55 °FPartly cloudy.3 mph82%29.98 "HgN/A
Weather by CustomWeather, © 2014

See weather overview